{"data":{"norad_id":81301,"intl_designator":"","name":"UNKNOWN","alt_names":[],"object_type":"UNKNOWN","status":"UNKNOWN","operator":null,"country":null,"launch_date":null,"launch_site_code":null,"launch_vehicle":null,"mission":null,"orbit_class":"UNKNOWN","rcs_meters":null,"size_class":null,"mass_kg":null,"dimensions":null,"purposes":[],"wikipedia_slug":null,"has_3d_model":false,"image_url":null,"decayed_at":null,"tle_current":{"epoch":"2026-05-19T15:01:20.314848Z","epoch_age_seconds":529637,"freshness":"STALE","line1":"1 81301U          26139.62592957  .00000137  00000+0  20941-3 0  9998","line2":"2 81301  66.7583 278.7411 0083198 126.5334 248.8215 13.76807923628094","mean_motion":13.76807923,"eccentricity":0.0083198,"inclination_deg":66.7583,"raan_deg":278.7411,"arg_perigee_deg":126.5334,"mean_anomaly_deg":248.8215,"bstar":0.00020941,"rev_number":62809,"period_min":104.58975256783,"perigee_km":914.0519364972,"apogee_km":1036.4090300721,"semimajor_km":7353.3674832846,"source":"CELESTRAK","updated_at":"2026-05-25T13:38:09.448190Z"}}}